Wind_Speed
8 8 9 9 10 9 7 8 8 9 9 10 10 10 11 12 12 13 13 13 12 12 12 12 12 12 12 12 12 13 13 13 12 12 12 11 11 10 10 10 9 8 8 8 7 8 7 7 6
7 8 8 9 10 6 6 7 7 7 8 8 9 10 10 10 11 12 13 13 12 11 11 11 11 11 11 11 11 11 11 11 11 11 11 10 10 9 9 9 8 7 7 7 7 7 7 6 6
6 7 7 8 7 5 5 5 6 6 6 7 9 10 9 9 10 11 12 12 12 11 10 10 10 10 10 10 10 10 10 10 10 9 10 9 9 8 8 8 7 6 7 6 6 6 6 5 5
5 6 6 6 5 4 4 4 5 5 6 7 8 9 9 9 9 10 11 11 11 10 9 9 9 9 9 9 9 9 9 9 9 8 9 8 8 7 7 7 6 6 6 6 5 5 5 5 5
4 5 5 4 4 4 4 4 4 6 6 6 7 8 8 8 9 9 9 10 10 9 9 8 8 8 8 8 8 8 8 8 8 8 8 7 7 6 6 6 5 5 5 5 5 4 4 5 4
3 4 4 2 2 3 4 4 5 5 5 6 7 8 8 8 7 7 8 8 9 8 8 8 7 7 7 7 7 7 7 7 7 7 7 7 6 6 5 5 5 5 5 4 4 4 4 4 4
3 3 3 2 2 2 3 4 4 5 5 5 6 6 7 7 7 7 7 7 7 7 7 7 6 6 6 6 6 7 7 7 7 7 6 6 5 5 4 4 4 4 4 4 3 3 3 3 3
3 3 1 1 1 2 2 3 3 4 5 4 5 6 6 6 6 6 6 6 6 6 6 5 5 5 5 5 6 6 6 6 6 6 5 5 4 3 3 3 3 3 3 3 3 3 2 3 3
4 3 3 2 2 1 2 2 2 3 3 4 4 4 5 5 5 5 5 5 5 5 4 5 5 5 4 4 5 5 5 5 5 5 4 4 3 3 2 2 2 2 2 2 2 2 2 2 2
5 5 5 4 3 1 1 2 2 2 3 3 3 3 4 4 4 4 4 4 4 4 4 4 4 4 4 4 5 5 4 4 4 4 3 3 2 1 1 1 1 1 1 1 1 1 1 1 2
6 6 6 5 4 2 1 1 1 1 2 2 2 2 3 3 3 4 4 3 3 3 3 4 4 4 4 4 4 4 4 4 3 3 2 2 2 1 1 1 1 1 1 1 1 1 1 1 1
8 7 7 6 5 4 2 2 1 0 1 2 2 2 2 2 3 3 3 3 2 2 2 3 3 4 4 4 4 4 3 3 3 2 2 2 2 2 2 2 2 2 2 2 2 2 2 1 1
10 8 8 7 6 5 4 3 2 1 0 1 2 0 1 1 2 2 2 2 1 2 2 2 3 4 4 4 4 3 3 3 3 3 2 2 2 2 2 3 3 3 3 3 3 3 3 2 1
11 10 9 8 7 6 5 4 3 2 2 2 1 1 0 0 0 1 1 1 1 1 2 2 3 4 4 4 3 3 3 4 4 3 3 3 3 3 3 4 4 4 3 3 3 3 3 3 2
12 11 10 9 9 8 6 5 5 4 4 3 2 1 1 1 1 1 1 2 2 2 3 3 3 4 4 4 4 4 4 5 5 5 4 4 4 3 4 4 4 4 4 4 4 4 4 4 3
14 13 12 11 10 9 7 7 7 6 5 4 3 2 2 3 2 2 2 3 3 3 4 4 4 5 5 5 5 5 5 5 6 6 6 5 5 5 5 5 5 5 5 4 4 4 4 4 4
16 14 14 13 12 11 9 9 9 7 6 5 4 4 3 3 3 3 3 4 4 5 5 5 6 6 6 7 6 6 7 7 7 7 7 7 7 6 6 6 5 5 5 5 5 5 5 5 5
17 16 16 15 13 12 11 11 10 9 9 8 7 6 5 4 4 4 4 5 5 6 7 7 7 7 7 7 7 8 8 9 8 8 8 8 8 8 8 7 7 6 6 6 6 6 6 6 6
19 18 17 17 15 14 13 12 11 10 10 9 8 7 6 5 5 5 6 6 6 7 7 7 7 8 8 8 9 9 9 9 9 9 10 9 9 9 9 9 8 8 8 8 8 7 7 7 7
20 19 19 18 16 15 14 14 13 11 11 10 9 9 8 7 6 6 7 8 8 8 8 8 9 8 8 9 10 10 10 10 10 10 10 10 9 9 9 9 9 9 10 10 9 9 9 8 8
21 21 20 19 17 16 15 14 14 13 12 12 11 10 10 9 8 8 8 9 9 9 9 9 10 9 9 9 10 10 10 10 10 9 9 10 9 9 9 9 10 10 10 10 10 10 9 9 8
22 22 21 19 17 17 16 14 15 15 14 14 13 13 12 11 11 10 10 10 10 10 11 11 11 11 10 10 10 10 10 10 9 9 9 9 10 10 10 11 10 10 10 10 10 10 10 10 9
24 23 22 20 19 18 16 15 16 15 14 14 14 14 13 12 12 12 12 11 11 12 12 12 12 12 12 11 11 11 10 10 10 9 9 9 10 10 10 10 10 10 10 10 10 10 11 10 9
25 23 22 21 20 19 17 15 15 15 14 15 15 14 14 13 13 13 13 12 12 12 12 13 13 13 13 12 12 12 11 11 11 11 10 10 11 11 11 10 10 10 10 10 10 10 10 11 10
26 24 22 21 21 19 18 17 16 15 14 15 14 14 14 13 13 14 13 13 13 12 13 13 13 13 13 12 12 11 12 12 12 12 12 11 11 11 11 10 10 10 10 11 12 12 11 11 11
25 25 23 21 19 19 20 18 16 14 14 14 15 14 14 14 14 15 14 14 13 14 14 14 13 13 13 13 13 13 13 13 14 13 13 12 13 13 12 11 11 11 11 12 12 12 11 10 11
27 27 25 23 21 19 19 18 16 15 15 15 14 14 14 14 14 14 14 13 13 14 13 13 13 13 13 13 13 13 13 14 14 14 13 14 13 13 13 13 12 12 13 13 13 12 11 11 11
28 26 26 24 22 20 19 18 17 16 16 16 15 14 14 14 13 13 14 13 13 13 12 12 12 12 12 12 12 12 13 14 14 14 14 14 14 14 14 13 13 13 14 14 13 12 12 12 12
28 28 27 25 23 20 17 18 19 17 16 16 16 15 14 14 13 13 13 13 13 12 12 12 12 12 12 12 12 12 12 13 14 14 14 13 14 14 13 13 14 13 13 13 12 12 13 13 13
27 27 26 25 25 22 18 18 19 17 17 17 16 16 15 14 14 14 13 13 13 12 12 12 13 13 12 12 12 12 13 13 13 14 14 13 13 14 14 13 14 13 13 13 13 14 13 14 14
Wind_Direction
81 83 81 76 73 70 69 70 73 74 76 79 83 88 92 95 100 102 104 104 103 105 106 107 109 110 111 111 110 109 107 106 104 102 101 100 100 101 98 93 96 97 98 99 93 89 87 84 83
85 88 83 75 75 71 69 70 73 73 75 79 82 87 91 93 100 105 107 106 105 106 109 110 112 114 114 114 113 112 110 108 106 104 102 101 101 100 98 99 103 104 104 102 94 89 85 81 79
87 90 82 77 82 80 73 68 68 71 75 81 83 87 91 94 101 107 110 109 107 106 109 113 115 117 117 117 117 115 113 111 109 107 104 103 103 102 99 101 104 106 106 101 94 90 83 80 79
86 86 83 80 78 74 70 69 65 65 74 88 89 92 94 96 101 108 111 111 110 108 108 113 117 120 121 122 120 118 115 113 111 108 107 105 104 101 98 97 98 101 100 99 96 87 79 77 74
93 83 84 76 74 73 68 67 67 69 80 94 96 96 96 98 100 105 112 112 111 109 111 114 119 124 124 124 125 122 120 117 113 108 108 108 107 103 99 94 95 98 97 93 92 84 77 72 69
116 97 101 98 74 80 76 66 65 75 83 98 99 99 98 94 97 102 111 112 111 111 115 117 119 123 125 127 128 129 127 122 118 113 110 110 108 104 96 92 96 96 90 86 83 80 75 69 63
143 128 123 104 82 104 93 64 68 77 80 90 97 99 99 95 93 99 107 113 117 117 120 120 124 127 128 129 132 130 129 128 124 120 114 111 109 102 97 97 97 93 85 76 71 68 68 63 58
167 154 137 119 115 134 103 81 85 86 79 88 93 94 96 100 99 100 105 115 123 126 126 127 131 133 132 132 134 133 132 130 126 124 121 116 110 100 106 111 102 93 87 76 67 67 72 64 54
183 169 190 200 187 158 101 93 83 76 75 76 76 85 89 99 102 101 104 113 124 132 135 142 146 145 144 140 137 134 133 132 132 133 130 123 110 103 113 119 109 100 96 81 65 51 55 52 46
192 184 199 200 210 218 137 101 67 75 79 81 68 73 91 99 105 104 108 116 127 137 147 157 164 166 159 150 145 143 147 147 146 146 146 145 135 122 131 112 115 103 93 84 65 47 25 23 26
202 198 200 203 214 213 177 168 102 60 61 61 53 62 80 98 110 106 111 114 123 139 155 170 182 187 174 165 159 158 165 166 170 171 172 181 197 242 262 294 313 321 309 282 276 332 346 335 348
210 207 205 208 211 210 205 206 206 17 53 30 20 41 91 97 108 109 105 117 120 137 158 167 190 195 182 177 180 179 186 191 197 203 210 215 223 249 275 280 298 300 293 284 282 293 311 331 337
211 211 208 209 210 209 219 224 238 254 258 328 343 354 130 110 103 101 102 114 125 139 159 170 189 191 189 192 192 198 211 222 232 239 232 237 244 262 279 289 292 286 287 285 291 282 292 297 293
213 212 212 213 217 216 218 228 239 258 277 282 299 319 250 252 121 98 128 161 188 201 196 206 204 203 203 208 213 226 235 242 247 247 246 254 265 273 279 280 285 276 272 278 286 280 276 283 284
215 214 215 217 221 222 227 236 243 260 274 266 250 252 244 244 235 264 256 245 244 243 235 225 225 218 226 236 242 250 253 252 251 253 254 257 267 276 283 283 279 271 265 265 274 276 277 280 286
218 217 221 222 223 225 227 243 249 255 261 260 253 249 261 261 258 273 279 269 263 255 253 253 249 243 243 249 257 256 260 260 253 254 254 258 265 273 280 279 278 268 260 265 274 275 277 276 279
220 220 224 226 224 225 226 237 252 254 254 259 258 258 262 269 272 276 284 281 274 267 259 257 262 259 254 253 259 263 263 263 259 257 258 263 270 271 274 278 275 269 265 268 274 274 276 275 277
221 221 224 228 225 223 228 238 250 253 252 258 260 260 262 269 278 282 285 286 284 276 271 264 262 263 264 262 262 262 262 261 264 262 264 268 273 273 272 274 274 268 260 262 269 270 274 278 283
221 222 224 225 225 225 227 236 245 248 251 255 255 256 259 266 272 279 283 287 289 284 281 275 269 273 271 268 267 267 262 259 262 263 263 268 273 273 271 273 272 265 257 259 264 269 274 277 278
222 223 226 226 225 226 228 235 241 245 249 249 251 254 258 268 277 281 282 283 285 285 282 283 280 281 276 273 271 268 262 261 262 263 262 265 270 272 271 271 273 269 263 261 262 264 268 271 271
223 223 226 228 228 230 233 237 242 244 245 245 249 255 258 266 277 279 280 281 283 283 281 281 282 278 275 274 275 270 264 259 261 265 264 265 265 265 271 275 276 274 268 264 264 265 267 270 272
223 224 225 227 228 233 234 237 246 244 243 244 247 253 260 265 272 275 276 277 278 281 281 281 281 279 276 276 274 268 266 262 263 268 269 268 266 268 273 275 278 277 271 267 267 267 267 269 273
223 224 225 226 228 233 235 234 244 243 242 244 247 252 258 264 266 269 274 274 277 282 281 280 281 280 281 278 277 266 265 266 266 268 268 270 270 270 275 279 276 276 274 272 269 268 268 268 271
223 224 226 227 230 235 235 236 240 244 243 245 247 250 256 263 264 266 269 271 275 282 284 283 281 279 281 277 276 267 263 265 265 266 267 269 271 270 273 280 278 271 272 273 274 275 270 268 266
221 222 224 227 231 236 236 236 238 241 242 244 247 252 256 259 264 266 267 269 273 279 282 283 281 279 278 278 276 269 264 265 267 268 270 272 274 273 274 281 278 271 270 274 275 273 271 268 266
222 221 222 227 234 238 238 237 237 239 240 244 249 253 256 259 263 263 263 265 270 275 276 277 278 278 274 274 273 267 265 267 270 272 271 272 274 275 276 278 277 273 273 274 276 276 267 266 269
220 219 221 224 228 232 240 239 238 237 241 245 249 251 254 259 262 262 264 264 268 270 271 272 274 277 273 271 271 268 266 265 270 273 272 272 274 274 275 275 274 271 270 273 275 276 268 267 270
221 221 221 221 226 232 241 240 237 238 241 244 247 250 253 255 259 263 263 263 266 265 265 269 271 273 271 271 276 273 267 265 268 270 271 270 271 273 273 271 271 272 269 271 273 271 266 268 271
222 221 222 223 227 229 238 241 236 237 240 243 246 248 250 252 255 259 262 262 263 259 261 266 268 269 268 270 274 271 272 268 269 271 271 271 269 272 273 273 272 273 270 270 271 272 269 268 273
221 222 223 226 229 228 231 244 240 240 240 242 243 244 247 251 254 257 261 262 259 259 262 264 263 267 268 270 273 274 274 271 268 269 271 272 272 272 272 273 274 273 269 269 271 272 270 270 272
Height
5899 5899 5899 5901 5902 5903 5902 5901 5900 5899 5899 5898 5897 5897 5897 5897 5897 5899 5897 5895 5896 5896 5897 5898 5898 5899 5899 5899 5900 5900 5900 5901 5901 5901 5901 5902 5902 5902 5902 5902 5902 5902 5902 5902 5902 5902 5903 5902 5902
5900 5900 5901 5902 5904 5905 5903 5902 5901 5901 5900 5899 5899 5898 5898 5898 5898 5898 5897 5897 5898 5898 5899 5899 5900 5900 5901 5901 5901 5901 5902 5902 5902 5902 5903 5903 5903 5903 5903 5903 5903 5903 5903 5903 5903 5903 5904 5903 5903
5901 5901 5903 5904 5904 5905 5904 5903 5902 5901 5901 5900 5900 5900 5899 5899 5899 5899 5899 5899 5899 5900 5900 5900 5901 5902 5902 5902 5902 5903 5903 5903 5903 5903 5904 5904 5904 5904 5904 5904 5904 5904 5905 5904 5904 5904 5904 5904 5904
5902 5903 5904 5905 5905 5905 5904 5904 5903 5902 5902 5901 5901 5901 5900 5900 5900 5900 5900 5900 5901 5901 5901 5902 5902 5903 5903 5903 5904 5904 5904 5904 5904 5905 5905 5905 5905 5905 5905 5905 5905 5905 5905 5905 5905 5905 5905 5905 5904
5902 5904 5905 5905 5905 5905 5904 5904 5903 5903 5903 5902 5902 5901 5901 5901 5901 5901 5901 5901 5902 5902 5902 5903 5903 5904 5904 5904 5905 5905 5905 5905 5905 5906 5906 5906 5906 5906 5906 5906 5906 5906 5906 5906 5906 5906 5905 5905 5905
5904 5905 5907 5907 5906 5905 5905 5904 5904 5904 5903 5903 5903 5902 5901 5902 5902 5902 5902 5902 5903 5903 5903 5904 5904 5905 5905 5905 5906 5906 5906 5906 5906 5906 5906 5907 5907 5907 5907 5907 5907 5907 5907 5907 5906 5906 5906 5905 5905
5904 5905 5906 5906 5906 5906 5906 5905 5905 5905 5904 5904 5904 5903 5902 5902 5903 5903 5903 5903 5904 5904 5904 5905 5905 5905 5906 5906 5906 5906 5906 5907 5907 5907 5907 5908 5908 5908 5908 5908 5908 5907 5907 5907 5907 5907 5906 5906 5906
5903 5906 5906 5906 5906 5906 5906 5906 5906 5905 5905 5904 5904 5904 5904 5903 5903 5903 5904 5904 5904 5905 5905 5906 5906 5906 5906 5907 5907 5907 5907 5907 5908 5908 5908 5908 5908 5908 5908 5908 5908 5908 5908 5907 5907 5907 5907 5907 5906
5903 5906 5906 5906 5906 5906 5906 5906 5906 5906 5906 5905 5905 5905 5905 5904 5904 5904 5904 5905 5905 5905 5906 5906 5906 5907 5907 5907 5907 5907 5907 5908 5908 5908 5909 5909 5909 5909 5909 5909 5908 5908 5908 5908 5908 5907 5907 5907 5906
5903 5905 5905 5905 5906 5906 5906 5906 5907 5907 5906 5906 5906 5905 5905 5905 5904 5904 5905 5905 5905 5906 5906 5906 5907 5907 5907 5907 5907 5908 5908 5909 5909 5909 5909 5909 5909 5909 5909 5909 5909 5909 5908 5908 5908 5908 5907 5907 5907
5901 5903 5904 5904 5905 5905 5906 5906 5907 5907 5907 5906 5906 5906 5905 5905 5905 5905 5905 5905 5906 5906 5906 5906 5907 5907 5907 5908 5908 5908 5909 5909 5909 5909 5909 5909 5909 5909 5909 5909 5909 5908 5908 5908 5908 5907 5907 5907 5907
5900 5902 5903 5904 5904 5905 5905 5906 5907 5907 5907 5907 5906 5906 5905 5905 5905 5905 5905 5906 5906 5906 5906 5906 5907 5907 5908 5908 5909 5909 5909 5909 5909 5909 5909 5909 5909 5909 5909 5909 5908 5908 5908 5908 5907 5907 5907 5907 5906
5899 5900 5901 5903 5903 5904 5905 5906 5907 5907 5907 5907 5906 5906 5905 5905 5906 5906 5906 5906 5906 5906 5907 5907 5907 5907 5908 5908 5909 5909 5909 5909 5909 5909 5909 5909 5909 5909 5909 5908 5908 5908 5907 5907 5907 5906 5906 5906 5906
5897 5899 5900 5901 5903 5904 5905 5906 5907 5907 5907 5906 5906 5906 5906 5906 5906 5906 5906 5906 5906 5906 5907 5907 5907 5907 5907 5908 5908 5909 5909 5909 5909 5909 5909 5909 5909 5908 5908 5908 5907 5907 5907 5906 5906 5906 5905 5905 5905
5895 5897 5899 5901 5902 5903 5905 5905 5906 5906 5906 5906 5906 5906 5906 5906 5906 5906 5906 5906 5906 5906 5906 5906 5907 5907 5907 5907 5908 5908 5908 5908 5908 5908 5908 5908 5908 5908 5907 5907 5906 5906 5906 5905 5905 5905 5905 5905 5904
5893 5896 5898 5899 5901 5902 5905 5906 5905 5905 5906 5906 5905 5905 5905 5905 5905 5905 5905 5905 5905 5905 5906 5906 5906 5906 5906 5906 5907 5907 5907 5907 5907 5907 5907 5907 5907 5907 5906 5906 5905 5904 5905 5905 5905 5904 5904 5904 5904
5890 5894 5896 5898 5899 5901 5903 5904 5904 5904 5905 5905 5905 5905 5905 5905 5905 5905 5905 5905 5905 5905 5905 5905 5905 5905 5905 5905 5905 5905 5906 5906 5906 5906 5906 5906 5906 5906 5905 5905 5904 5904 5904 5904 5904 5904 5903 5903 5903
5889 5891 5893 5895 5897 5899 5901 5902 5902 5903 5903 5904 5904 5904 5904 5904 5904 5904 5904 5904 5904 5904 5904 5904 5904 5903 5903 5904 5904 5904 5904 5904 5904 5904 5904 5904 5904 5904 5904 5903 5903 5903 5903 5903 5903 5903 5902 5902 5902
5885 5888 5890 5892 5894 5896 5898 5900 5901 5901 5902 5902 5903 5903 5903 5903 5903 5903 5903 5903 5903 5903 5903 5903 5902 5902 5902 5902 5902 5902 5902 5902 5902 5902 5902 5902 5902 5902 5902 5902 5901 5901 5902 5902 5901 5901 5901 5901 5900
5881 5884 5887 5889 5891 5894 5896 5897 5898 5899 5900 5901 5901 5901 5902 5902 5902 5902 5902 5902 5902 5902 5901 5901 5901 5900 5900 5900 5900 5900 5900 5900 5900 5900 5900 5900 5900 5900 5900 5900 5900 5900 5900 5900 5900 5899 5899 5899 5899
5877 5881 5884 5886 5889 5891 5893 5895 5896 5897 5898 5899 5899 5900 5900 5900 5901 5901 5900 5900 5900 5900 5900 5900 5899 5899 5898 5898 5898 5898 5898 5898 5898 5898 5898 5898 5898 5898 5898 5898 5898 5898 5898 5898 5898 5897 5897 5897 5897
5873 5876 5880 5883 5886 5888 5891 5893 5894 5894 5895 5896 5897 5898 5898 5899 5899 5899 5899 5899 5898 5898 5898 5897 5897 5897 5896 5896 5896 5896 5896 5896 5896 5896 5896 5896 5896 5896 5896 5896 5896 5895 5895 5895 5895 5895 5895 5895 5895
5868 5872 5876 5879 5882 5885 5887 5890 5892 5891 5892 5894 5895 5895 5896 5896 5896 5897 5896 5897 5896 5896 5895 5895 5895 5895 5894 5894 5894 5894 5894 5894 5894 5894 5894 5894 5894 5894 5894 5893 5893 5893 5893 5893 5893 5893 5893 5893 5893
5864 5868 5872 5875 5878 5881 5884 5886 5888 5889 5890 5891 5892 5892 5893 5894 5894 5893 5894 5894 5894 5893 5893 5892 5892 5892 5892 5891 5891 5891 5892 5891 5892 5892 5892 5891 5891 5892 5891 5891 5891 5891 5891 5891 5891 5891 5890 5890 5891
5860 5865 5869 5872 5875 5878 5880 5882 5885 5885 5886 5887 5888 5889 5889 5890 5890 5890 5891 5891 5891 5891 5890 5889 5889 5889 5889 5889 5889 5889 5889 5889 5889 5889 5889 5889 5889 5889 5889 5888 5888 5888 5888 5889 5889 5888 5888 5888 5888
5856 5861 5866 5870 5873 5875 5875 5878 5881 5882 5883 5884 5885 5885 5886 5887 5887 5887 5887 5887 5887 5887 5887 5887 5886 5886 5886 5886 5886 5886 5886 5887 5887 5887 5887 5887 5887 5887 5886 5886 5886 5886 5886 5886 5886 5885 5885 5885 5885
5851 5855 5860 5865 5868 5871 5872 5874 5877 5878 5879 5880 5881 5882 5883 5883 5884 5884 5884 5884 5884 5884 5884 5884 5883 5883 5883 5883 5883 5883 5884 5884 5884 5884 5884 5884 5884 5884 5884 5884 5883 5883 5883 5883 5883 5882 5882 5882 5883
5846 5851 5855 5859 5863 5867 5869 5871 5873 5874 5875 5877 5878 5878 5879 5880 5880 5880 5881 5881 5881 5881 5881 5881 5881 5881 5880 5881 5881 5880 5880 5881 5882 5882 5881 5881 5881 5881 5880 5880 5880 5880 5880 5880 5880 5879 5880 5880 5880
5841 5845 5849 5854 5858 5863 5866 5869 5868 5870 5872 5873 5874 5875 5875 5876 5877 5877 5878 5878 5878 5878 5878 5878 5878 5878 5878 5878 5878 5878 5878 5878 5878 5878 5878 5878 5878 5878 5877 5877 5876 5876 5876 5876 5876 5876 5876 5877 5877
5836 5840 5845 5850 5853 5857 5861 5866 5863 5865 5867 5868 5870 5871 5872 5873 5873 5874 5874 5874 5875 5875 5875 5875 5875 5876 5876 5875 5875 5875 5875 5875 5874 5875 5875 5875 5874 5874 5874 5873 5873 5873 5873 5873 5873 5873 5873 5873 5873